Location: Kempten
(47.7167°N, 10.3167°E)
Time: 06:21:40
(UTC+02:00)

STARLINK-2753 - Visible Passes

Search period start: 17 October 2021 00:00
Search period end: 27 October 2021 00:00
Orbit: 546 x 548 km, 53.1° (Epoch: 16 October)

Date Brightness Start Highest point End Pass type
(mag) Time Alt. Az. Time Alt. Az. Time Alt. Az.
21 Oct 6.5 05:54:09 10° SSE 05:55:46 12° SE 05:57:25 10° ESE visible
22 Oct 6.3 05:46:46 10° S 05:49:18 16° SE 05:51:50 10° E visible
23 Oct 5.9 05:40:13 12° S 05:42:50 20° SE 05:45:55 10° E visible
24 Oct 5.4 05:34:52 21° S 05:36:22 26° SE 05:39:50 10° E visible
24 Oct 3.6 07:11:28 10° WSW 07:15:35 76° NNW 07:19:44 10° ENE visible
25 Oct 4.9 05:29:22 31° SSE 05:29:56 33° SE 05:33:40 10° ENE visible
25 Oct 3.7 07:05:11 10° WSW 07:09:17 65° NNW 07:13:24 10° ENE visible
26 Oct 4.6 05:23:43 41° SE 05:23:43 41° SE 05:27:25 10° ENE visible
26 Oct 3.8 06:59:20 13° W 07:03:00 56° NNW 07:07:04 10° ENE visible
